STARLINK-37598, 69357

Orbit data source: Space-Track

STARLINK-37598, 69357 is a payload satellite owned by SpaceX/Seattle (US) in LEO that was launched on Thu, 04 Jun 2026 UTC via an FALCON 9 launch vehicle from the Air Force Eastern Test Range (AFETR). Payload-class satellites include a variety of spacecraft equipped with specific instruments for various scientific and technological missions. These include communications satellites like Starlink; space stations such as the ISS; scientific satellites like the Hubble; Earth observation satellites from companies like Planet Labs, Umbra, and HawkEye 360; GPS; miniature CubeSats for education and research; and military/defense satellites.

Loading next visibility...
Identifier
69357, 2026-123E
Orbit
LEO
Country
Flag of USUS
Related business
Manufacturer
SpaceX/Seattle
Mission
Operational spacecraft
Bus & Motor
STARLINK V2MO, Unknown motor
Mass
575 kg wet, ~530 kg dry
Launch date (UTC)
2026-06-04 (2 months ago)
Launch vehicle
FALCON 9
Launch site
Air Force Eastern Test Range (AFETR)
Object type
Payload
Rocket body
Debris
Shape & HBR
Unknown shape, 17.7 m
Radar Cross Section
Large (>1 m²)

Expand to show TLE details & history
Last TLE update: 12 hours ago

TLE from 12 hours ago
0 STARLINK-37598
1 69357U 26123E   26202.19040005  .00206490  00000-0  13158-2 0  9996
2 69357  53.1596  72.2051 0001242  43.4611 316.6507 15.75288049  7404
Epoch: 2026-07-21T04:34Z
TLE epoch observation values (Epoch: 2026-07-21T04:34:10.564Z)
Latitude
-0.00002°
Longitude
64.69742°
Altitude
344.122 km
Speed
7.704 km/s
True Right ascension
04h 48m 49s
True Declination
0° 00' 00"
Sunlit
Object was in daylight at epoch
Visualization orbit readout
Latitude
Unknown
Longitude
Unknown
Altitude
Unknown
Speed
Unknown
Apparent Right ascension
Unknown
Apparent Declination
Unknown
Sunlit
N/A
Visualization observer readout
Local Sidereal Time
05:41:18
Azimuth
Unknown
Elevation
Unknown
Doppler factor
Unknown
Orbital elements
Apogee altitude
344.908 km
Perigee altitude
343.238 km
Semi-major axis
6,722.21 km
Eccentricity
0.00012
Inclination
53.1596°
RAAN
72.2051°
Arg. of periapsis
43.4611°
True anomaly
316.64093°
Mean anomaly
316.6507°
Eccentric anomaly
316.64581°
Mean motion
3.93799 °/min
Orbital period
91.42 mins
BSTAR
0.0013158
Loading maneuver chart data...
Computing Atmospheric mass density...
Loading historical data...
Loading historical data...
Loading historical data...
Loading historical data...
Loading historical data...
Loading historical data...
Loading historical data...

Documentation

Showing up to 5 results
|